Time,TemperatureF,DewpointF,PressureIn,WindDirection,WindDirectionDegrees,WindSpeedMPH,WindSpeedGustMPH,Humidity,HourlyPrecipIn,Conditions,Clouds,dailyrainin,SoftwareType,DateUTC
2013-05-02 00:00:00,66.7,62.0,29.97,North,354,3.5,10.1,84,0.00,,,0.00,WSDL version 420,2013-05-01 14:00:00,
2013-05-02 00:10:00,66.6,60.7,29.97,NW,321,3.6,6.5,81,-99.99,,,-99.99,WSDL version 420,2013-05-01 14:10:00,
2013-05-02 00:15:00,66.4,60.2,29.94,WNW,287,4.3,6.5,80,0.00,,,0.00,WSDL version 420,2013-05-01 14:15:00,
2013-05-02 00:20:00,66.4,60.0,29.94,WNW,293,3.8,6.5,80,0.00,,,0.00,WSDL version 420,2013-05-01 14:20:00,
2013-05-02 00:25:00,66.4,60.0,29.94,North,360,3.1,6.7,80,0.00,,,0.00,WSDL version 420,2013-05-01 14:25:00,
2013-05-02 00:30:00,66.4,59.7,29.94,WSW,257,3.6,6.7,79,0.00,,,0.00,WSDL version 420,2013-05-01 14:30:00,
2013-05-02 00:35:00,66.4,59.1,29.94,South,169,2.9,6.5,77,0.00,,,0.00,WSDL version 420,2013-05-01 14:35:00,
2013-05-02 00:40:00,66.2,58.3,29.94,WNW,293,4.1,7.2,74,0.00,,,0.00,WSDL version 420,2013-05-01 14:40:00,
2013-05-02 00:45:00,66.2,57.2,29.97,WNW,286,2.8,7.2,73,0.00,,,0.00,WSDL version 420,2013-05-01 14:45:00,
2013-05-02 00:50:00,66.1,57.1,29.97,NNW,341,2.8,6.5,73,0.00,,,0.00,WSDL version 420,2013-05-01 14:50:00,
2013-05-02 00:55:00,66.0,57.0,29.97,NNW,334,2.9,5.4,72,0.00,,,0.00,WSDL version 420,2013-05-01 14:55:00,
2013-05-02 01:00:00,66.0,56.7,29.97,WNW,302,2.7,6.3,72,-99.99,,,-99.99,WSDL version 420,2013-05-01 15:00:00,
2013-05-02 01:05:00,66.0,56.7,29.97,NW,309,3.6,6.5,72,0.00,,,0.00,WSDL version 420,2013-05-01 15:05:00,
2013-05-02 01:10:00,66.0,56.7,29.97,NNW,345,2.9,7.6,72,0.00,,,0.00,WSDL version 420,2013-05-01 15:10:00,
2013-05-02 01:15:00,65.9,56.6,29.97,NE,39,2.6,7.6,72,0.00,,,0.00,WSDL version 420,2013-05-01 15:15:00,
2013-05-02 01:20:00,65.8,56.2,29.97,WNW,296,3.3,7.4,71,0.00,,,0.00,WSDL version 420,2013-05-01 15:20:00,
2013-05-02 01:25:00,65.8,56.1,29.97,NNW,347,2.5,7.4,71,0.00,,,0.00,WSDL version 420,2013-05-01 15:25:00,
2013-05-02 01:30:00,65.7,55.7,29.97,NW,304,3.4,7.6,70,0.00,,,0.00,WSDL version 420,2013-05-01 15:30:00,
2013-05-02 01:40:00,65.7,55.6,29.97,NW,321,3.3,5.6,70,0.00,,,0.00,WSDL version 420,2013-05-01 15:40:00,
2013-05-02 01:45:00,65.6,55.2,29.97,NW,312,3.2,5.6,69,0.00,,,0.00,WSDL version 420,2013-05-01 15:45:00,
2013-05-02 01:50:00,65.5,54.8,29.97,WNW,296,2.5,6.5,68,0.00,,,0.00,WSDL version 420,2013-05-01 15:50:00,
2013-05-02 01:55:00,65.4,55.0,29.97,NW,326,3.2,6.5,69,0.00,,,0.00,WSDL version 420,2013-05-01 15:55:00,
2013-05-02 02:00:00,65.3,54.6,29.97,NW,315,2.7,5.4,68,0.00,,,0.00,WSDL version 420,2013-05-01 16:00:00,
2013-05-02 02:05:00,65.1,54.3,29.97,NW,305,3.2,5.4,68,-99.99,,,-99.99,WSDL version 420,2013-05-01 16:05:00,
2013-05-02 02:10:00,65.1,54.2,29.97,NW,307,2.6,5.4,68,0.00,,,0.00,WSDL version 420,2013-05-01 16:10:00,
2013-05-02 02:15:00,64.9,54.1,29.97,WNW,302,3.0,4.9,68,0.00,,,0.00,WSDL version 420,2013-05-01 16:15:00,
2013-05-02 02:20:00,64.7,53.9,29.97,West,267,2.7,4.9,68,0.00,,,0.00,WSDL version 420,2013-05-01 16:20:00,
2013-05-02 02:25:00,64.4,53.6,29.97,NNW,338,2.9,5.8,68,-99.99,,,-99.99,WSDL version 420,2013-05-01 16:25:00,
2013-05-02 02:30:00,64.2,53.8,29.97,WNW,300,2.5,5.8,69,0.00,,,0.00,WSDL version 420,2013-05-01 16:30:00,
2013-05-02 02:35:00,64.0,53.6,29.97,WNW,299,2.7,6.0,69,0.00,,,0.00,WSDL version 420,2013-05-01 16:35:00,
2013-05-02 02:40:00,63.8,53.7,29.97,WNW,285,2.6,6.0,70,0.00,,,0.00,WSDL version 420,2013-05-01 16:40:00,
2013-05-02 02:50:00,63.2,54.0,29.97,NNW,348,2.7,6.0,72,0.00,,,0.00,WSDL version 420,2013-05-01 16:50:00,
2013-05-02 03:00:00,62.8,53.4,29.97,NW,326,2.2,6.3,71,-99.99,,,-99.99,WSDL version 420,2013-05-01 17:00:00,
2013-05-02 03:10:00,62.5,53.2,29.97,WSW,240,2.1,5.8,72,0.00,,,0.00,WSDL version 420,2013-05-01 17:10:00,
2013-05-02 03:15:00,62.2,53.1,29.97,West,280,2.7,3.8,72,0.00,,,0.00,WSDL version 420,2013-05-01 17:15:00,
2013-05-02 03:20:00,62.0,52.9,29.97,West,280,2.3,4.0,72,-99.99,,,-99.99,WSDL version 420,2013-05-01 17:20:00,
2013-05-02 03:25:00,61.9,53.0,29.97,WNW,299,3.6,6.5,73,0.00,,,0.00,WSDL version 420,2013-05-01 17:25:00,
2013-05-02 03:30:00,62.0,53.4,30.00,WNW,288,2.8,6.5,74,0.00,,,0.00,WSDL version 420,2013-05-01 17:30:00,
2013-05-02 03:35:00,62.2,53.9,30.00,NNW,328,3.9,7.2,75,0.00,,,0.00,WSDL version 420,2013-05-01 17:35:00,
2013-05-02 03:40:00,62.2,54.2,30.00,NW,312,3.5,7.2,75,0.00,,,0.00,WSDL version 420,2013-05-01 17:40:00,
2013-05-02 03:45:00,-999.0,-99.9,30.00,NNW,330,2.5,6.0,-999,0.00,,,0.00,WSDL version 420,2013-05-01 17:45:00,
2013-05-02 03:50:00,62.2,54.0,30.00,WNW,283,2.8,5.6,74,0.00,,,0.00,WSDL version 420,2013-05-01 17:50:00,
2013-05-02 03:55:00,62.1,53.3,30.00,NNW,330,3.1,5.6,73,0.00,,,0.00,WSDL version 420,2013-05-01 17:55:00,
2013-05-02 04:00:00,62.0,53.1,30.03,NNW,334,2.8,5.6,72,0.00,,,0.00,WSDL version 420,2013-05-01 18:00:00,
2013-05-02 04:05:00,61.9,52.4,30.03,North,357,2.4,6.0,71,0.00,,,0.00,WSDL version 420,2013-05-01 18:05:00,
2013-05-02 04:10:00,61.7,51.9,30.03,WNW,290,3.5,6.0,70,-99.99,,,-99.99,WSDL version 420,2013-05-01 18:10:00,
2013-05-02 04:15:00,61.6,51.7,30.03,WNW,299,3.6,6.0,70,0.00,,,0.00,WSDL version 420,2013-05-01 18:15:00,
2013-05-02 04:20:00,61.5,51.9,30.03,West,273,4.0,6.0,71,0.00,,,0.00,WSDL version 420,2013-05-01 18:20:00,
2013-05-02 04:25:00,61.5,52.4,30.03,NW,324,3.0,5.8,72,0.00,,,0.00,WSDL version 420,2013-05-01 18:25:00,
2013-05-02 04:30:00,61.3,52.5,30.03,WSW,257,2.6,5.6,73,0.00,,,0.00,WSDL version 420,2013-05-01 18:30:00,
2013-05-02 04:35:00,61.3,52.5,30.03,NW,305,2.2,5.4,73,0.00,,,0.00,WSDL version 420,2013-05-01 18:35:00,
2013-05-02 04:40:00,61.2,52.6,30.03,WNW,293,2.3,3.6,74,0.00,,,0.00,WSDL version 420,2013-05-01 18:40:00,
2013-05-02 04:45:00,61.2,52.9,30.03,NW,325,1.8,3.6,75,0.00,,,0.00,WSDL version 420,2013-05-01 18:45:00,
2013-05-02 04:50:00,61.1,53.6,30.03,NE,35,1.8,4.9,77,0.00,,,0.00,WSDL version 420,2013-05-01 18:50:00,
2013-05-02 04:55:00,61.0,54.1,30.03,North,353,1.0,4.9,79,-99.99,,,-99.99,WSDL version 420,2013-05-01 18:55:00,
2013-05-02 05:00:00,60.8,54.9,30.03,NNE,13,1.3,3.4,82,0.00,,,0.00,WSDL version 420,2013-05-01 19:00:00,
2013-05-02 05:05:00,60.6,55.5,30.03,North,357,1.6,4.9,83,0.00,,,0.00,WSDL version 420,2013-05-01 19:05:00,
2013-05-02 05:10:00,60.4,55.7,30.03,NNW,331,1.2,4.9,84,0.00,,,0.00,WSDL version 420,2013-05-01 19:10:00,
2013-05-02 05:15:00,60.3,55.6,30.03,NW,326,2.9,8.5,84,0.00,,,0.00,WSDL version 420,2013-05-01 19:15:00,
2013-05-02 05:20:00,60.4,55.6,30.03,WNW,290,2.7,8.5,84,0.00,,,0.00,WSDL version 420,2013-05-01 19:20:00,
2013-05-02 05:25:00,60.5,55.3,30.03,West,276,3.4,6.5,82,0.00,,,0.00,WSDL version 420,2013-05-01 19:25:00,
2013-05-02 05:30:00,60.7,54.2,30.03,West,270,2.9,6.5,77,0.00,,,0.00,WSDL version 420,2013-05-01 19:30:00,
2013-05-02 05:35:00,60.9,52.6,30.03,NE,49,4.6,6.3,73,-99.99,,,-99.99,WSDL version 420,2013-05-01 19:35:00,
2013-05-02 05:40:00,61.0,51.7,30.03,NNW,334,3.7,6.3,70,0.00,,,0.00,WSDL version 420,2013-05-01 19:40:00,
2013-05-02 05:45:00,61.1,50.9,30.06,NW,304,3.7,6.3,69,0.00,,,0.00,WSDL version 420,2013-05-01 19:45:00,
2013-05-02 05:50:00,61.2,50.7,30.06,North,8,3.4,7.6,68,0.00,,,0.00,WSDL version 420,2013-05-01 19:50:00,
2013-05-02 05:55:00,61.0,49.8,30.06,NW,321,3.6,7.6,66,0.00,,,0.00,WSDL version 420,2013-05-01 19:55:00,
2013-05-02 06:00:00,61.0,49.6,30.06,NNW,328,3.8,7.6,66,0.00,,,0.00,WSDL version 420,2013-05-01 20:00:00,
2013-05-02 06:05:00,61.0,49.6,30.06,NNE,25,3.9,7.6,66,0.00,,,0.00,WSDL version 420,2013-05-01 20:05:00,
2013-05-02 06:10:00,60.9,48.8,30.06,WNW,296,2.8,7.4,63,0.00,,,0.00,WSDL version 420,2013-05-01 20:10:00,
2013-05-02 06:15:00,60.8,47.4,30.06,NNW,328,3.7,4.7,61,0.00,,,0.00,WSDL version 420,2013-05-01 20:15:00,
2013-05-02 06:20:00,60.8,47.5,30.06,NNW,338,3.0,4.9,62,0.00,,,0.00,WSDL version 420,2013-05-01 20:20:00,
2013-05-02 06:25:00,60.8,47.7,30.06,WNW,289,2.8,5.6,62,0.00,,,0.00,WSDL version 420,2013-05-01 20:25:00,
2013-05-02 06:30:00,60.9,47.7,30.09,NNW,338,3.4,6.5,62,0.00,,,0.00,WSDL version 420,2013-05-01 20:30:00,
2013-05-02 06:35:00,61.0,47.5,30.09,West,264,3.3,6.5,60,0.00,,,0.00,WSDL version 420,2013-05-01 20:35:00,
2013-05-02 06:40:00,61.0,46.7,30.09,NW,304,4.3,6.3,58,-99.99,,,-99.99,WSDL version 420,2013-05-01 20:40:00,
2013-05-02 06:45:00,61.2,46.8,30.09,NNW,348,3.4,5.8,60,0.00,,,0.00,WSDL version 420,2013-05-01 20:45:00,
2013-05-02 06:55:00,61.3,47.1,30.09,NW,318,3.5,7.8,58,0.00,,,0.00,WSDL version 420,2013-05-01 20:55:00,
2013-05-02 07:00:00,61.3,45.9,30.09,NNW,334,3.5,7.8,56,-99.99,,,-99.99,WSDL version 420,2013-05-01 21:00:00,
2013-05-02 07:05:00,61.3,45.4,30.09,NW,325,4.1,8.1,56,0.00,,,0.00,WSDL version 420,2013-05-01 21:05:00,
2013-05-02 07:10:00,61.4,46.0,30.09,North,3,3.3,8.1,57,0.00,,,0.00,WSDL version 420,2013-05-01 21:10:00,
2013-05-02 07:15:00,61.8,46.7,30.09,North,356,3.6,6.0,58,0.00,,,0.00,WSDL version 420,2013-05-01 21:15:00,
2013-05-02 07:20:00,62.8,47.5,30.09,NW,323,3.0,6.0,57,0.00,,,0.00,WSDL version 420,2013-05-01 21:20:00,
2013-05-02 07:25:00,62.7,47.6,30.09,NNW,330,4.4,8.1,57,0.00,,,0.00,WSDL version 420,2013-05-01 21:25:00,
2013-05-02 07:30:00,63.0,47.1,30.06,NNW,347,2.9,8.1,56,0.00,,,0.00,WSDL version 420,2013-05-01 21:30:00,
2013-05-02 07:35:00,63.4,47.0,30.06,NNE,32,4.2,7.2,55,0.00,,,0.00,WSDL version 420,2013-05-01 21:35:00,
2013-05-02 07:40:00,64.4,47.7,30.06,WNW,289,3.3,7.2,55,0.00,,,0.00,WSDL version 420,2013-05-01 21:40:00,
2013-05-02 07:45:00,63.6,47.4,30.09,West,280,5.6,7.4,56,0.00,,,0.00,WSDL version 420,2013-05-01 21:45:00,
2013-05-02 07:55:00,62.9,48.2,30.09,WNW,302,3.9,8.7,59,0.00,,,0.00,WSDL version 420,2013-05-01 21:55:00,
2013-05-02 08:00:00,62.4,48.2,30.09,North,360,3.3,8.1,60,0.00,,,0.00,WSDL version 420,2013-05-01 22:00:00,
2013-05-02 08:05:00,62.0,48.6,30.09,West,264,4.1,8.1,62,-99.99,,,-99.99,WSDL version 420,2013-05-01 22:05:00,
2013-05-02 08:10:00,61.9,48.9,30.09,West,274,4.0,6.5,63,0.00,,,0.00,WSDL version 420,2013-05-01 22:10:00,
2013-05-02 08:15:00,62.1,48.7,30.12,NW,309,3.0,7.6,62,0.00,,,0.00,WSDL version 420,2013-05-01 22:15:00,
2013-05-02 08:20:00,62.4,48.8,30.12,South,183,2.3,7.6,61,0.00,,,0.00,WSDL version 420,2013-05-01 22:20:00,
2013-05-02 08:25:00,63.5,50.2,30.12,NW,312,3.3,5.8,62,0.00,,,0.00,WSDL version 420,2013-05-01 22:25:00,
2013-05-02 08:30:00,64.2,49.9,30.15,WNW,289,4.8,9.4,59,0.00,,,0.00,WSDL version 420,2013-05-01 22:30:00,
2013-05-02 08:35:00,64.1,49.6,30.15,WNW,283,3.7,9.4,59,0.00,,,0.00,WSDL version 420,2013-05-01 22:35:00,
2013-05-02 08:40:00,65.5,50.2,30.15,WSW,248,3.8,6.3,57,0.00,,,0.00,WSDL version 420,2013-05-01 22:40:00,
2013-05-02 08:45:00,65.4,48.3,30.15,NW,313,5.1,7.4,54,0.00,,,0.00,WSDL version 420,2013-05-01 22:45:00,
2013-05-02 08:50:00,65.3,48.4,30.15,NW,309,4.9,8.1,54,0.00,,,0.00,WSDL version 420,2013-05-01 22:50:00,
2013-05-02 08:55:00,65.7,48.8,30.15,NW,321,2.4,8.1,54,0.00,,,0.00,WSDL version 420,2013-05-01 22:55:00,
2013-05-02 09:00:00,65.6,48.0,30.15,WNW,290,3.0,6.0,53,-99.99,,,-99.99,WSDL version 420,2013-05-01 23:00:00,
2013-05-02 09:05:00,65.2,47.7,30.15,ENE,64,4.6,10.1,53,0.00,,,0.00,WSDL version 420,2013-05-01 23:05:00,
2013-05-02 09:10:00,66.0,48.1,30.15,WNW,289,3.9,10.1,51,0.00,,,0.00,WSDL version 420,2013-05-01 23:10:00,
2013-05-02 09:15:00,66.1,48.0,30.15,WNW,284,3.5,8.1,52,0.00,,,0.00,WSDL version 420,2013-05-01 23:15:00,
2013-05-02 09:20:00,65.8,47.7,30.15,WNW,283,2.8,8.1,52,-99.99,,,-99.99,WSDL version 420,2013-05-01 23:20:00,
2013-05-02 09:25:00,66.6,47.6,30.15,SE,145,5.3,8.1,50,0.00,,,0.00,WSDL version 420,2013-05-01 23:25:00,
2013-05-02 09:30:00,67.6,48.1,30.15,SSE,150,2.8,8.1,49,0.00,,,0.00,WSDL version 420,2013-05-01 23:30:00,
2013-05-02 09:35:00,68.5,48.1,30.15,NW,321,4.1,6.5,48,0.00,,,0.00,WSDL version 420,2013-05-01 23:35:00,
2013-05-02 09:40:00,68.3,47.3,30.15,WNW,302,3.9,6.5,47,0.00,,,0.00,WSDL version 420,2013-05-01 23:40:00,
2013-05-02 09:45:00,68.8,47.2,30.15,WSW,257,5.6,12.5,46,0.00,,,0.00,WSDL version 420,2013-05-01 23:45:00,
2013-05-02 09:50:00,68.1,46.3,30.15,NW,321,5.0,12.5,46,0.00,,,0.00,WSDL version 420,2013-05-01 23:50:00,
2013-05-02 09:55:00,68.7,47.4,30.15,NE,56,3.8,12.5,46,0.00,,,0.00,WSDL version 420,2013-05-01 23:55:00,
2013-05-02 10:05:00,69.0,47.2,30.15,WNW,296,5.1,12.1,45,0.00,,,0.00,WSDL version 420,2013-05-02 00:05:00,
2013-05-02 10:10:00,69.7,47.9,30.15,ESE,105,3.4,8.1,45,0.00,,,0.00,WSDL version 420,2013-05-02 00:10:00,
2013-05-02 10:15:00,70.0,47.9,30.12,WNW,293,3.0,5.4,46,0.00,,,0.00,WSDL version 420,2013-05-02 00:15:00,
2013-05-02 10:20:00,70.4,48.1,30.12,North,4,4.3,7.2,45,0.00,,,0.00,WSDL version 420,2013-05-02 00:20:00,
2013-05-02 10:25:00,70.3,47.9,30.12,SSE,150,4.6,8.5,45,0.00,,,0.00,WSDL version 420,2013-05-02 00:25:00,
2013-05-02 10:30:00,70.3,48.0,30.15,South,190,4.1,11.4,45,0.00,,,0.00,WSDL version 420,2013-05-02 00:30:00,
2013-05-02 10:35:00,70.9,48.1,30.15,NW,312,3.4,11.4,45,0.00,,,0.00,WSDL version 420,2013-05-02 00:35:00,
2013-05-02 10:40:00,71.4,48.3,30.15,NNW,329,4.9,8.5,43,0.00,,,0.00,WSDL version 420,2013-05-02 00:40:00,
2013-05-02 10:45:00,70.6,47.3,30.15,North,8,4.2,8.5,44,-99.99,,,-99.99,WSDL version 420,2013-05-02 00:45:00,
2013-05-02 10:50:00,70.2,47.3,30.15,North,8,4.8,8.1,44,0.00,,,0.00,WSDL version 420,2013-05-02 00:50:00,
2013-05-02 10:55:00,69.9,47.3,30.15,NW,315,2.7,7.6,44,0.00,,,0.00,WSDL version 420,2013-05-02 00:55:00,
2013-05-02 11:00:00,70.8,47.9,30.15,SE,131,3.9,7.6,44,0.00,,,0.00,WSDL version 420,2013-05-02 01:00:00,
2013-05-02 11:05:00,71.2,47.8,30.15,WSW,245,4.0,7.2,43,0.00,,,0.00,WSDL version 420,2013-05-02 01:05:00,
2013-05-02 11:10:00,71.4,47.6,30.15,West,259,3.6,7.2,42,0.00,,,0.00,WSDL version 420,2013-05-02 01:10:00,
2013-05-02 11:15:00,71.2,47.0,30.15,West,274,4.6,7.6,42,0.00,,,0.00,WSDL version 420,2013-05-02 01:15:00,
2013-05-02 11:20:00,71.1,47.3,30.15,West,260,4.2,7.6,43,0.00,,,0.00,WSDL version 420,2013-05-02 01:20:00,
2013-05-02 11:25:00,71.1,47.1,30.15,NNW,335,4.2,8.7,43,0.00,,,0.00,WSDL version 420,2013-05-02 01:25:00,
2013-05-02 11:30:00,71.1,47.5,30.15,WNW,293,4.7,8.7,43,0.00,,,0.00,WSDL version 420,2013-05-02 01:30:00,
2013-05-02 11:35:00,70.9,47.2,30.15,WNW,295,4.9,9.8,43,0.00,,,0.00,WSDL version 420,2013-05-02 01:35:00,
2013-05-02 11:40:00,70.8,47.2,30.15,WSW,238,4.5,9.8,43,0.00,,,0.00,WSDL version 420,2013-05-02 01:40:00,
2013-05-02 11:45:00,70.7,47.0,30.12,NW,312,5.1,9.6,43,0.00,,,0.00,WSDL version 420,2013-05-02 01:45:00,
2013-05-02 11:50:00,70.4,46.9,30.12,NNE,17,4.8,9.6,43,0.00,,,0.00,WSDL version 420,2013-05-02 01:50:00,
2013-05-02 11:55:00,70.7,47.1,30.12,NNW,346,4.9,12.8,43,0.00,,,0.00,WSDL version 420,2013-05-02 01:55:00,
2013-05-02 12:00:00,70.9,47.5,30.15,North,357,4.3,12.8,43,0.00,,,0.00,WSDL version 420,2013-05-02 02:00:00,
2013-05-02 12:05:00,71.6,47.9,30.15,WNW,293,3.8,9.6,43,0.00,,,0.00,WSDL version 420,2013-05-02 02:05:00,
2013-05-02 12:10:00,72.1,47.9,30.15,North,6,3.5,9.6,43,0.00,,,0.00,WSDL version 420,2013-05-02 02:10:00,
2013-05-02 12:15:00,72.3,48.3,30.18,NNE,23,4.5,8.5,43,0.00,,,0.00,WSDL version 420,2013-05-02 02:15:00,
2013-05-02 12:20:00,72.3,48.0,30.18,North,5,4.0,8.5,42,0.00,,,0.00,WSDL version 420,2013-05-02 02:20:00,
2013-05-02 12:25:00,72.5,48.0,30.18,NNE,14,3.2,6.5,41,0.00,,,0.00,WSDL version 420,2013-05-02 02:25:00,
2013-05-02 12:30:00,72.4,47.4,30.15,WNW,293,4.3,6.5,41,0.00,,,0.00,WSDL version 420,2013-05-02 02:30:00,
2013-05-02 12:35:00,72.1,47.8,30.15,NE,39,3.6,6.0,42,0.00,,,0.00,WSDL version 420,2013-05-02 02:35:00,
2013-05-02 12:40:00,71.8,47.7,30.15,NW,315,4.6,8.1,43,0.00,,,0.00,WSDL version 420,2013-05-02 02:40:00,
2013-05-02 12:45:00,70.8,47.2,30.15,WNW,290,4.0,8.1,43,0.00,,,0.00,WSDL version 420,2013-05-02 02:45:00,
2013-05-02 12:50:00,71.5,47.7,30.15,NW,312,3.6,7.6,42,0.00,,,0.00,WSDL version 420,2013-05-02 02:50:00,
2013-05-02 12:55:00,71.8,47.1,30.15,South,177,4.4,7.2,41,0.00,,,0.00,WSDL version 420,2013-05-02 02:55:00,
2013-05-02 13:00:00,71.6,47.0,30.15,WSW,254,3.3,8.1,42,0.00,,,0.00,WSDL version 420,2013-05-02 03:00:00,
2013-05-02 13:05:00,72.4,47.7,30.15,NW,309,3.5,8.7,41,0.00,,,0.00,WSDL version 420,2013-05-02 03:05:00,
2013-05-02 13:10:00,72.6,47.8,30.15,East,98,4.1,8.7,42,0.00,,,0.00,WSDL version 420,2013-05-02 03:10:00,
2013-05-02 13:15:00,72.8,48.1,30.15,NW,312,4.7,8.7,41,0.00,,,0.00,WSDL version 420,2013-05-02 03:15:00,
2013-05-02 13:20:00,73.6,48.3,30.15,WNW,283,2.9,8.7,39,0.00,,,0.00,WSDL version 420,2013-05-02 03:20:00,
2013-05-02 13:25:00,72.2,45.6,30.15,North,11,3.8,7.2,39,0.00,,,0.00,WSDL version 420,2013-05-02 03:25:00,
2013-05-02 13:30:00,72.2,45.9,30.15,NNE,17,4.7,9.6,40,0.00,,,0.00,WSDL version 420,2013-05-02 03:30:00,
2013-05-02 13:35:00,72.1,46.4,30.15,NNW,341,4.0,9.6,41,0.00,,,0.00,WSDL version 420,2013-05-02 03:35:00,
2013-05-02 13:40:00,72.7,47.7,30.15,NNE,28,4.5,6.0,41,0.00,,,0.00,WSDL version 420,2013-05-02 03:40:00,
2013-05-02 13:45:00,72.7,47.9,30.15,NNE,32,3.8,6.7,41,0.00,,,0.00,WSDL version 420,2013-05-02 03:45:00,
2013-05-02 13:50:00,72.1,46.8,30.15,North,357,3.7,8.7,41,-99.99,,,-99.99,WSDL version 420,2013-05-02 03:50:00,
2013-05-02 13:55:00,72.3,47.0,30.15,WNW,286,3.6,8.7,40,0.00,,,0.00,WSDL version 420,2013-05-02 03:55:00,
2013-05-02 14:00:00,72.3,47.0,30.15,ENE,68,3.5,8.1,41,0.00,,,0.00,WSDL version 420,2013-05-02 04:00:00,
2013-05-02 14:05:00,73.0,47.9,30.15,NE,49,3.7,8.1,41,0.00,,,0.00,WSDL version 420,2013-05-02 04:05:00,
2013-05-02 14:10:00,72.7,48.3,30.15,North,353,4.1,5.8,42,0.00,,,0.00,WSDL version 420,2013-05-02 04:10:00,
2013-05-02 14:15:00,72.2,47.9,30.15,NNW,335,3.7,6.3,42,0.00,,,0.00,WSDL version 420,2013-05-02 04:15:00,
2013-05-02 14:20:00,71.3,47.4,30.15,NNW,335,3.2,9.6,43,0.00,,,0.00,WSDL version 420,2013-05-02 04:20:00,
2013-05-02 14:25:00,71.8,47.5,30.15,NNW,345,3.3,9.6,42,0.00,,,0.00,WSDL version 420,2013-05-02 04:25:00,
2013-05-02 14:30:00,72.1,47.8,30.12,NNW,347,4.1,6.0,42,0.00,,,0.00,WSDL version 420,2013-05-02 04:30:00,
2013-05-02 14:35:00,72.1,47.8,30.12,NNW,338,3.1,7.4,42,0.00,,,0.00,WSDL version 420,2013-05-02 04:35:00,
2013-05-02 14:40:00,72.4,48.1,30.12,NNE,29,4.5,7.6,42,0.00,,,0.00,WSDL version 420,2013-05-02 04:40:00,
2013-05-02 14:45:00,71.7,47.5,30.15,WNW,283,3.9,10.7,42,0.00,,,0.00,WSDL version 420,2013-05-02 04:45:00,
2013-05-02 14:50:00,71.2,47.4,30.15,NNW,334,3.1,10.7,43,0.00,,,0.00,WSDL version 420,2013-05-02 04:50:00,
2013-05-02 14:55:00,71.7,47.8,30.15,East,84,3.7,8.5,43,0.00,,,0.00,WSDL version 420,2013-05-02 04:55:00,
2013-05-02 15:00:00,71.8,48.1,30.12,NW,325,3.5,6.5,43,0.00,,,0.00,WSDL version 420,2013-05-02 05:00:00,
2013-05-02 15:05:00,71.1,47.5,30.12,WNW,298,3.9,8.7,43,0.00,,,0.00,WSDL version 420,2013-05-02 05:05:00,
2013-05-02 15:10:00,70.8,48.0,30.12,North,6,3.7,8.7,45,0.00,,,0.00,WSDL version 420,2013-05-02 05:10:00,
2013-05-02 15:20:00,70.6,48.1,30.12,NW,318,4.3,6.5,45,0.00,,,0.00,WSDL version 420,2013-05-02 05:20:00,
2013-05-02 15:25:00,70.1,47.9,30.12,North,352,4.2,6.3,46,0.00,,,0.00,WSDL version 420,2013-05-02 05:25:00,
2013-05-02 15:30:00,70.0,47.9,30.15,NNW,330,5.0,7.2,45,0.00,,,0.00,WSDL version 420,2013-05-02 05:30:00,
2013-05-02 15:35:00,68.8,47.5,30.15,West,259,4.1,7.8,47,0.00,,,0.00,WSDL version 420,2013-05-02 05:35:00,
2013-05-02 15:40:00,68.4,47.6,30.15,NW,325,3.6,7.8,48,-99.99,,,-99.99,WSDL version 420,2013-05-02 05:40:00,
2013-05-02 15:45:00,68.5,48.4,30.15,NE,38,3.1,6.5,49,0.00,,,0.00,WSDL version 420,2013-05-02 05:45:00,
2013-05-02 15:50:00,68.9,48.8,30.15,SW,225,3.5,6.0,48,0.00,,,0.00,WSDL version 420,2013-05-02 05:50:00,
2013-05-02 15:55:00,69.2,48.5,30.15,WSW,248,3.8,6.0,47,0.00,,,0.00,WSDL version 420,2013-05-02 05:55:00,
2013-05-02 16:00:00,69.0,48.2,30.15,West,270,3.6,6.5,47,0.00,,,0.00,WSDL version 420,2013-05-02 06:00:00,
2013-05-02 16:05:00,68.7,48.1,30.15,NNW,345,3.8,6.5,48,0.00,,,0.00,WSDL version 420,2013-05-02 06:05:00,
2013-05-02 16:10:00,68.3,47.4,30.15,NW,304,4.5,6.0,48,0.00,,,0.00,WSDL version 420,2013-05-02 06:10:00,
2013-05-02 16:15:00,68.1,48.0,30.15,NNW,338,3.5,6.0,49,0.00,,,0.00,WSDL version 420,2013-05-02 06:15:00,
2013-05-02 16:20:00,67.9,48.6,30.15,NW,315,4.3,8.5,50,0.00,,,0.00,WSDL version 420,2013-05-02 06:20:00,
2013-05-02 16:25:00,67.6,48.7,30.15,North,357,2.6,8.5,51,0.00,,,0.00,WSDL version 420,2013-05-02 06:25:00,
2013-05-02 16:30:00,66.7,48.7,30.15,WNW,297,4.4,7.6,53,0.00,,,0.00,WSDL version 420,2013-05-02 06:30:00,
2013-05-02 16:35:00,65.9,49.0,30.15,West,277,3.6,7.6,55,0.00,,,0.00,WSDL version 420,2013-05-02 06:35:00,
2013-05-02 16:40:00,65.2,48.8,30.15,NNW,347,2.3,4.7,56,0.00,,,0.00,WSDL version 420,2013-05-02 06:40:00,
2013-05-02 16:45:00,64.0,48.9,30.15,NW,305,2.6,5.6,59,0.00,,,0.00,WSDL version 420,2013-05-02 06:45:00,
2013-05-02 16:50:00,63.3,49.8,30.15,WNW,298,3.7,5.8,63,0.00,,,0.00,WSDL version 420,2013-05-02 06:50:00,
2013-05-02 16:55:00,63.0,50.2,30.15,NE,42,2.2,9.8,63,0.00,,,0.00,WSDL version 420,2013-05-02 06:55:00,
2013-05-02 17:00:00,62.7,50.5,30.18,NW,321,2.1,9.8,65,0.00,,,0.00,WSDL version 420,2013-05-02 07:00:00,
2013-05-02 17:05:00,62.3,50.8,30.18,West,280,3.4,6.0,66,0.00,,,0.00,WSDL version 420,2013-05-02 07:05:00,
2013-05-02 17:15:00,61.9,50.8,30.18,WSW,248,2.7,6.5,67,0.00,,,0.00,WSDL version 420,2013-05-02 07:15:00,
2013-05-02 17:20:00,61.7,50.6,30.18,NW,312,1.8,6.0,67,0.00,,,0.00,WSDL version 420,2013-05-02 07:20:00,
2013-05-02 17:25:00,61.7,50.6,30.18,West,278,2.1,3.8,67,0.00,,,0.00,WSDL version 420,2013-05-02 07:25:00,
2013-05-02 17:30:00,61.6,50.6,30.18,WNW,293,2.0,3.6,67,0.00,,,0.00,WSDL version 420,2013-05-02 07:30:00,
2013-05-02 17:35:00,61.5,50.4,30.18,SSE,149,1.7,3.6,67,0.00,,,0.00,WSDL version 420,2013-05-02 07:35:00,
2013-05-02 17:40:00,61.3,50.3,30.18,NW,308,1.2,3.8,67,0.00,,,0.00,WSDL version 420,2013-05-02 07:40:00,
2013-05-02 17:45:00,61.3,50.5,30.18,NW,321,2.5,4.7,68,0.00,,,0.00,WSDL version 420,2013-05-02 07:45:00,
2013-05-02 17:55:00,61.3,51.1,30.18,NW,312,3.3,8.7,69,-99.99,,,-99.99,WSDL version 420,2013-05-02 07:55:00,
2013-05-02 18:00:00,61.1,50.9,30.21,WNW,293,3.0,8.7,69,0.00,,,0.00,WSDL version 420,2013-05-02 08:00:00,
2013-05-02 18:05:00,61.0,50.9,30.21,NNW,332,1.9,5.6,70,0.00,,,0.00,WSDL version 420,2013-05-02 08:05:00,
2013-05-02 18:10:00,61.0,51.1,30.21,West,274,2.2,5.6,70,0.00,,,0.00,WSDL version 420,2013-05-02 08:10:00,
2013-05-02 18:15:00,61.0,51.4,30.18,West,264,2.9,5.8,71,0.00,,,0.00,WSDL version 420,2013-05-02 08:15:00,
2013-05-02 18:20:00,60.8,51.5,30.18,WNW,293,2.7,5.8,72,0.00,,,0.00,WSDL version 420,2013-05-02 08:20:00,
2013-05-02 18:25:00,60.7,51.7,30.18,NNW,329,3.0,4.9,73,0.00,,,0.00,WSDL version 420,2013-05-02 08:25:00,
2013-05-02 18:30:00,60.6,51.9,30.21,NNW,329,2.1,5.8,73,0.00,,,0.00,WSDL version 420,2013-05-02 08:30:00,
2013-05-02 18:35:00,60.6,52.2,30.21,NW,319,2.6,5.8,74,0.00,,,0.00,WSDL version 420,2013-05-02 08:35:00,
2013-05-02 18:40:00,60.6,53.0,30.21,SE,135,2.3,6.0,77,-99.99,,,-99.99,WSDL version 420,2013-05-02 08:40:00,
2013-05-02 18:45:00,60.6,53.4,30.21,NW,311,2.3,6.0,77,0.00,,,0.00,WSDL version 420,2013-05-02 08:45:00,
2013-05-02 18:50:00,60.6,53.3,30.21,NW,306,3.1,4.3,77,0.00,,,0.00,WSDL version 420,2013-05-02 08:50:00,
2013-05-02 18:55:00,60.4,53.2,30.21,WNW,289,2.7,4.3,77,0.00,,,0.00,WSDL version 420,2013-05-02 08:55:00,
2013-05-02 19:00:00,60.4,53.2,30.21,NW,309,2.0,4.9,77,0.00,,,0.00,WSDL version 420,2013-05-02 09:00:00,
2013-05-02 19:05:00,60.4,52.8,30.21,West,280,0.5,4.9,76,0.00,,,0.00,WSDL version 420,2013-05-02 09:05:00,
2013-05-02 19:10:00,60.4,53.0,30.21,NE,51,1.2,2.9,77,0.00,,,0.00,WSDL version 420,2013-05-02 09:10:00,
2013-05-02 19:15:00,60.4,53.1,30.21,WNW,286,1.4,2.9,77,0.00,,,0.00,WSDL version 420,2013-05-02 09:15:00,
2013-05-02 19:20:00,60.4,53.1,30.21,WNW,289,2.7,3.8,77,0.00,,,0.00,WSDL version 420,2013-05-02 09:20:00,
2013-05-02 19:25:00,60.4,53.2,30.21,WNW,285,1.6,3.8,77,0.00,,,0.00,WSDL version 420,2013-05-02 09:25:00,
2013-05-02 19:30:00,60.4,53.3,30.21,West,268,3.1,6.0,77,0.00,,,0.00,WSDL version 420,2013-05-02 09:30:00,
2013-05-02 19:35:00,60.3,53.1,30.21,WNW,289,3.1,6.0,77,0.00,,,0.00,WSDL version 420,2013-05-02 09:35:00,
2013-05-02 19:40:00,60.2,52.9,30.21,WNW,290,3.2,4.9,77,0.00,,,0.00,WSDL version 420,2013-05-02 09:40:00,
2013-05-02 19:45:00,60.1,53.0,30.21,WNW,296,2.9,4.7,77,0.00,,,0.00,WSDL version 420,2013-05-02 09:45:00,
2013-05-02 19:50:00,59.9,53.0,30.21,NNW,347,1.7,5.6,78,0.00,,,0.00,WSDL version 420,2013-05-02 09:50:00,
2013-05-02 20:00:00,59.6,53.1,30.21,West,276,2.2,6.0,79,0.00,,,0.00,WSDL version 420,2013-05-02 10:00:00,
2013-05-02 20:05:00,59.4,52.9,30.21,WNW,284,2.7,5.6,79,0.00,,,0.00,WSDL version 420,2013-05-02 10:05:00,
2013-05-02 20:10:00,59.2,52.7,30.21,WNW,285,2.4,5.6,79,0.00,,,0.00,WSDL version 420,2013-05-02 10:10:00,
2013-05-02 20:15:00,58.9,52.9,30.21,WNW,299,2.4,4.3,81,0.00,,,0.00,WSDL version 420,2013-05-02 10:15:00,
2013-05-02 20:20:00,58.6,52.8,30.21,WNW,293,2.5,4.3,81,0.00,,,0.00,WSDL version 420,2013-05-02 10:20:00,
2013-05-02 20:25:00,58.3,52.6,30.21,West,270,1.3,4.0,81,0.00,,,0.00,WSDL version 420,2013-05-02 10:25:00,
2013-05-02 20:30:00,58.1,52.4,30.21,West,267,1.2,3.4,82,0.00,,,0.00,WSDL version 420,2013-05-02 10:30:00,
2013-05-02 20:35:00,57.9,52.5,30.21,NW,309,1.4,2.9,82,0.00,,,0.00,WSDL version 420,2013-05-02 10:35:00,
2013-05-02 20:40:00,57.7,52.3,30.21,West,278,0.7,2.5,82,0.00,,,0.00,WSDL version 420,2013-05-02 10:40:00,
2013-05-02 20:45:00,57.4,52.0,30.24,West,270,0.0,2.2,82,0.00,,,0.00,WSDL version 420,2013-05-02 10:45:00,
2013-05-02 20:50:00,57.1,52.0,30.24,SSW,206,0.8,2.0,83,0.00,,,0.00,WSDL version 420,2013-05-02 10:50:00,
2013-05-02 20:55:00,56.7,51.7,30.24,WNW,284,0.4,2.0,83,0.00,,,0.00,WSDL version 420,2013-05-02 10:55:00,
2013-05-02 21:00:00,56.4,51.6,30.21,West,274,0.2,2.0,84,0.00,,,0.00,WSDL version 420,2013-05-02 11:00:00,
2013-05-02 21:05:00,56.2,51.6,30.21,West,259,0.9,2.2,84,0.00,,,0.00,WSDL version 420,2013-05-02 11:05:00,
2013-05-02 21:10:00,56.0,51.5,30.21,WNW,285,0.4,2.2,86,0.00,,,0.00,WSDL version 420,2013-05-02 11:10:00,
2013-05-02 21:15:00,55.9,51.8,30.21,SW,233,0.0,1.6,87,-99.99,,,-99.99,WSDL version 420,2013-05-02 11:15:00,
2013-05-02 21:20:00,55.6,52.0,30.21,SSW,203,0.0,1.1,88,0.00,,,0.00,WSDL version 420,2013-05-02 11:20:00,
2013-05-02 21:25:00,55.3,52.0,30.21,South,186,0.0,0.0,89,0.00,,,0.00,WSDL version 420,2013-05-02 11:25:00,
2013-05-02 21:30:00,54.9,51.9,30.21,SW,225,0.0,0.0,90,0.00,,,0.00,WSDL version 420,2013-05-02 11:30:00,
2013-05-02 21:35:00,54.7,51.8,30.21,South,186,0.0,0.0,90,0.00,,,0.00,WSDL version 420,2013-05-02 11:35:00,
2013-05-02 21:40:00,54.4,51.6,30.21,WSW,248,0.0,0.0,90,0.00,,,0.00,WSDL version 420,2013-05-02 11:40:00,
2013-05-02 21:45:00,54.1,51.6,30.24,NW,326,0.0,0.0,91,0.00,,,0.00,WSDL version 420,2013-05-02 11:45:00,
2013-05-02 21:50:00,54.1,51.5,30.24,ESE,113,0.0,0.0,91,0.00,,,0.00,WSDL version 420,2013-05-02 11:50:00,
2013-05-02 21:55:00,54.0,51.6,30.24,South,169,0.0,0.0,91,0.00,,,0.00,WSDL version 420,2013-05-02 11:55:00,
2013-05-02 22:00:00,53.9,51.7,30.21,SSE,152,0.0,0.0,92,0.00,,,0.00,WSDL version 420,2013-05-02 12:00:00,
2013-05-02 22:05:00,53.7,51.5,30.21,SSW,203,0.0,0.0,93,0.00,,,0.00,WSDL version 420,2013-05-02 12:05:00,
2013-05-02 22:10:00,53.5,51.7,30.21,SSW,203,0.0,0.0,94,0.00,,,0.00,WSDL version 420,2013-05-02 12:10:00,
2013-05-02 22:15:00,53.4,51.8,30.21,SW,225,0.0,0.0,94,0.00,,,0.00,WSDL version 420,2013-05-02 12:15:00,
2013-05-02 22:20:00,53.2,51.7,30.21,SSE,148,0.0,0.0,94,0.00,,,0.00,WSDL version 420,2013-05-02 12:20:00,
2013-05-02 22:25:00,53.2,51.6,30.21,SE,129,0.0,1.6,94,0.00,,,0.00,WSDL version 420,2013-05-02 12:25:00,
2013-05-02 22:30:00,53.2,51.6,30.24,WSW,239,0.0,1.6,94,0.00,,,0.00,WSDL version 420,2013-05-02 12:30:00,
2013-05-02 22:35:00,53.2,51.9,30.24,ESE,121,0.0,1.1,96,0.00,,,0.00,WSDL version 420,2013-05-02 12:35:00,
2013-05-02 22:40:00,53.1,51.9,30.24,South,180,0.0,0.0,97,0.00,,,0.00,WSDL version 420,2013-05-02 12:40:00,
2013-05-02 22:45:00,53.2,52.3,30.21,SW,225,0.0,0.0,97,0.00,,,0.00,WSDL version 420,2013-05-02 12:45:00,
2013-05-02 22:50:00,53.4,52.4,30.21,ESE,116,0.0,0.0,97,0.00,,,0.00,WSDL version 420,2013-05-02 12:50:00,
2013-05-02 22:55:00,53.6,52.5,30.21,SSW,206,0.0,0.0,97,0.00,,,0.00,WSDL version 420,2013-05-02 12:55:00,
2013-05-02 23:00:00,53.5,52.6,30.21,NNW,338,1.2,2.7,97,0.00,,,0.00,WSDL version 420,2013-05-02 13:00:00,
2013-05-02 23:05:00,53.7,52.8,30.21,SSW,197,0.0,2.7,97,0.00,,,0.00,WSDL version 420,2013-05-02 13:05:00,
2013-05-02 23:10:00,53.5,52.9,30.21,SSE,152,0.0,0.0,98,0.00,,,0.00,WSDL version 420,2013-05-02 13:10:00,
2013-05-02 23:15:00,53.4,52.8,30.21,SSE,151,0.0,0.0,98,0.00,,,0.00,WSDL version 420,2013-05-02 13:15:00,
2013-05-02 23:20:00,53.4,52.8,30.21,ESE,109,0.0,0.0,98,0.00,,,0.00,WSDL version 420,2013-05-02 13:20:00,
2013-05-02 23:25:00,53.5,52.9,30.21,South,180,0.0,0.0,98,0.00,,,0.00,WSDL version 420,2013-05-02 13:25:00,
2013-05-02 23:30:00,53.7,53.0,30.21,SSE,167,0.0,0.0,98,0.00,,,0.00,WSDL version 420,2013-05-02 13:30:00,
2013-05-02 23:35:00,54.1,53.8,30.21,SW,231,2.3,3.6,99,0.00,,,0.00,WSDL version 420,2013-05-02 13:35:00,
2013-05-02 23:40:00,54.3,54.3,30.21,SSW,209,0.0,3.6,100,0.00,,,0.00,WSDL version 420,2013-05-02 13:40:00,
2013-05-02 23:45:00,-999.0,-99.9,30.21,SW,225,0.0,0.0,-999,0.00,,,0.00,WSDL version 420,2013-05-02 13:45:00,
2013-05-02 23:50:00,54.2,53.9,30.21,WSW,240,0.0,2.0,99,0.00,,,0.00,WSDL version 420,2013-05-02 13:50:00,
2013-05-02 23:55:00,54.1,53.8,30.21,WSW,251,0.3,2.0,99,0.00,,,0.00,WSDL version 420,2013-05-02 13:55:00,